sim
Sign-in with your pilot id or email,
or register
Callsign
Passwort

Schedule Details

Flight Number: RYR6442 (3)
Departure: Brussels South Charleroi Airport (EBCI) at 12:30
Arrival: Fuerteventura Airport (GCFV) at 16:50
Route: Ryanair Passenger Schedule. Enter filed route here before submitting Pirep.

Weather Information
Getting current METAR information for EBCI 222150Z 12003KT CAVOK 21/14 Q1023 NOSIG
Getting current METAR information for GCFV 222200Z 35016KT CAVOK 22/17 Q1018

Schedule Frequency

Route Map